Вернуться в каталог

STARLINK-3728

АктивенСвязьVLEO
NORAD 52361·PAYLOAD·🇺🇸 United States

Запущен Apr 29, 2022 с Cape Canaveral Space Force Station

Loading…

Ближайшие Пролёты (ближайшие 24 часа)

TLE

СвежийSource: CelesTrak SupGP

Эпоха: Sep 15, 2026, 03:01 UTC

1 52361C 22045AG  26258.12618056 -.00026517  00000+0 -75882-3 0  2585
2 52361  53.1596  54.6155 0001213  84.9345  33.7867 15.35405362    13

Отслеживайте STARLINK-3728 в реальном времени с AllMySat

Download on the App Store